星链-37335(STARLINK-37335)

导读

STARLINK-37335(NORAD编号68785)是SpaceX星链(Starlink)卫星互联网星座的一员,属于低轨通信卫星。星链项目旨在为全球提供高速低延迟宽带互联网服务,该卫星延续了星链典型的平板轻量化设计,可紧凑堆叠于猎鹰火箭完成批量发射,目前运行在约550公里近地轨道,依托低轨布局大幅压缩网络传输延迟,为地面偏远地区、移动场景等提供互联网接入支持,助力实现全球网络覆盖目标,也是星链持续扩容星座组网的重要组成部分。

基本信息
目录编号:
68785
目录名称:
STARLINK-37335
国际标识:
2026-086V
轨道中心:
EARTH
卫星名称:
星链-37335
卫星全名:
星链-37335(STARLINK-37335)
卫星状态:
在轨 (已飞行138 天)
发射日期:
2026-04-19 UTC
国别 :
美国 (US)
星等 :
--
轨道信息
数据来源 国际轨道数据 AOE轨道数据
星历时间 2026-09-04T09:58:43+0800
6小时前
查看轨道信息
2026-08-31T23:00:00+0800
3天前
查看轨道信息
半长轴 6843.675km 6843.678km
偏心率 0.000068 0.000072
轨道倾角 97.288° 97.285°
近地点辐角 136.453° 86.741°
升交点赤经 282.816° 279.411°
平近点角 223.677° 279.404°
近地点 465.072km 465.048km
远地点 466.004km 466.034km
周期 93.906分钟 93.906分钟
每日圈数 15.334469 15.33446
详细信息
固有亮度:
5
最大亮度:
2.5
卫星平台:
Starlink V1.0
覆盖范围:
全球
运营商:
太空探索技术公司
运营商所在国:
美国
制造商(研发单位):
太空探索技术公司
制造商所在国:
美国
使用方式:
暂无
卫星简介
Starlink 计划是 SpaceX 推出的全球卫星互联网项目,通过发射低轨道卫星,为全球尤其是偏远地区提供高速、低延迟的互联网服务。自 2019 年起,Starlink 已部署数千颗卫星,旨在缩小全球数字鸿沟,推动互联网普及。该项目还为军事、航空等行业提供通信支持,带来广泛经济效益。
2D轨道图
3D轨道图
轨道高度分析图
轨道倾角分析图
轨道综合分析图
查看轨道综合分析图
交会数据列表
事件ID 空间交会对象 最接近时刻(TCA) 交会距离 交会风险概率(CRP) 交会风险指数(CRI) 操作
CDM_260830-191005-227106-878521
2026-08-30T
19:10:34+0000
1.026 km
极远距离
2.316916E-5 中风险 0.62
CDM_260905-154004-945106-878521
2026-09-05T
15:40:24+0000
2.666 km
极远距离
1.564722E-6 低风险 0.39
CDM_260906-114505-083406-878521
2026-09-06T
11:45:29+0000
2.789 km
极远距离
1.445042E-6 低风险 0.38
CDM_260905-171905-019506-878521
2026-09-05T
17:19:11+0000
2.940 km
极远距离
1.33504E-6 低风险 0.38
CDM_260905-071705-912106-878521
2026-09-05T
07:17:59+0000
2.873 km
极远距离
1.244902E-6 低风险 0.37
CDM_260905-042605-246906-878521
2026-09-05T
04:26:07+0000
2.471 km
极远距离
1.200129E-6 低风险 0.37